Location: Rounton
(54.4000°N, 1.3500°W)
Time: 13:14:49
(UTC+00:00)

Transit 4A - Pass Details

Date: 07 December 2021
Orbit: 864 x 981 km, 66.8° (Epoch: 18 January)

Event Time Altitude Azimuth Distance (km) Brightness Sun altitude
Rises 01:48:35 0° 315° (NW) 3,584 - -51.9°
Reaches altitude 10° 01:51:09 10° 320° (NW) 2,656 - -51.7°
Maximum altitude 01:57:14 55° 38° (NE) 1,146 - -51.0°
Drops below altitude 10° 02:03:27 10° 116° (ESE) 2,713 - -50.4°
Sets 02:06:06 0° 121° (ESE) 3,667 - -50.1°
